Weather History for KJAX - September, 2012

Change the Weather History Date:

Saturday, September 29, 2012

  Actual Average Record
Temperature  
Mean Temperature 77 °F 75 °F  
Max Temperature 88 °F 84 °F 92 °F (1936)
Min Temperature 66 °F 66 °F 53 °F (1993)
Degree Days  
Heating Degree Days 0 0  
Month to date heating degree days 0 0  
Since 1 July heating degree days 0 0  
Cooling Degree Days 12 10  
Month to date cooling degree days 393 387  
Year to date cooling degree days 2498 2377  
Growing Degree Days 27 (Base 50)    
Moisture  
Dew Point 67 °F    
Average Humidity 72    
Maximum Humidity 100    
Minimum Humidity 43    
Precipitation  
Precipitation 0.00 in 0.24 in 4.73 in (1991)
Month to date precipitation 5.95 7.95  
Year to date precipitation 47.18 43.31  
Snow  
Snow 0.00 in 0.00 in 0.00 in (2002)
Month to date snowfall 0.0 0.0  
Since 1 July snowfall 0.0 0.0  
Since 1 September snowfall 0.0 0.0  
Snow Depth 0.00 in    
Sea Level Pressure  
Sea Level Pressure 29.96 in    
Wind  
Wind Speed 2 mph (East)    
Max Wind Speed 10 mph    
Max Gust Speed 13 mph    
Visibility 6 miles    
Events Fog    
T = Trace of Precipitation, MM = Missing Value Source: NWS Daily Summary

Daily Weather History Graph

Daily Weather History Graph

Search for Another Location

Airport or City:

Trip Planner

Search our weather history database for the weather conditions in past years. The results will help you decide how hot, cold, wet, or windy it might be!

Date:

Astronomy

Sep. 29, 2012 Rise Set
Actual Time 7:19 AM EDT 7:13 PM EDT
Civil Twilight 6:55 AM EDT 7:37 PM EDT
Nautical Twilight 6:27 AM EDT 8:05 PM EDT
Astronomical Twilight 5:59 AM EDT 8:33 PM EDT
Moon 6:49 PM EDT (9/29) 6:47 AM EDT (9/29)
Length of Visible Light 12h 42m
Length of Day
11h 54m
Full, 100% of the Moon is Illuminated
Sep 29
Full
Sep 29
Full
Oct 8
Last Quarter
Oct 15
New
Oct 21
First Quarter

Hourly Weather History & Observations

Time (EDT) Temp. Heat Index Dew Point Humidity Pressure Visibility Wind Dir Wind Speed Gust Speed Precip Events Conditions
12:56 AM 69.1 °F - 66.9 °F 93% 30.02 in 9.0 mi Calm Calm - N/A   Mostly Cloudy
1:56 AM 68.0 °F - 66.9 °F 96% 30.00 in 8.0 mi Calm Calm - N/A   Mostly Cloudy
2:56 AM 68.0 °F - 66.9 °F 96% 30.00 in 7.0 mi Calm Calm - N/A   Mostly Cloudy
3:56 AM 68.0 °F - 66.9 °F 96% 29.98 in 4.0 mi Calm Calm - N/A   Mostly Cloudy
4:56 AM 68.0 °F - 66.9 °F 96% 29.98 in 4.0 mi Calm Calm - N/A   Mostly Cloudy
5:56 AM 66.0 °F - 66.0 °F 100% 29.97 in 3.0 mi Calm Calm - N/A   Mostly Cloudy
6:03 AM 66.2 °F - 64.4 °F 94% 29.97 in 2.0 mi ENE 3.5 mph - N/A   Scattered Clouds
6:37 AM 66.2 °F - 66.2 °F 100% 29.99 in 2.0 mi Calm Calm - N/A   Mostly Cloudy
6:45 AM 66.2 °F - 64.4 °F 94% 29.99 in 0.8 mi Calm Calm - N/A   Mostly Cloudy
6:56 AM 66.9 °F - 66.0 °F 97% 29.99 in 0.5 mi Calm Calm - N/A Fog Fog
7:02 AM 66.2 °F - 66.2 °F 100% 29.99 in 0.1 mi Calm Calm - N/A Fog Fog
7:15 AM 66.2 °F - 66.2 °F 100% 29.99 in 0.2 mi Calm Calm - N/A Fog Fog
7:46 AM 66.2 °F - 66.2 °F 100% 29.99 in 0.5 mi Calm Calm - N/A Fog Fog
7:56 AM 66.9 °F - 66.9 °F 100% 30.00 in 0.5 mi Calm Calm - N/A Fog Fog
8:06 AM 68.0 °F - 66.2 °F 94% 29.99 in 1.0 mi Calm Calm - N/A   Overcast
8:09 AM 68.0 °F - 68.0 °F 100% 29.99 in 4.0 mi Calm Calm - N/A   Overcast
8:22 AM 69.8 °F - 69.8 °F 100% 30.00 in 1.0 mi Calm Calm - N/A   Overcast
8:54 AM 71.6 °F - 69.8 °F 94% 30.01 in 2.0 mi Calm Calm - N/A   Overcast
8:56 AM 71.1 °F - 70.0 °F 96% 30.02 in 2.0 mi Calm Calm - N/A   Overcast
9:53 AM 75.2 °F - 73.4 °F 94% 30.01 in 6.0 mi Calm Calm - N/A   Overcast
9:56 AM 75.9 °F - 73.0 °F 91% 30.01 in 6.0 mi Calm Calm - N/A   Overcast
10:56 AM 80.1 °F 83.6 °F 71.1 °F 74% 30.01 in 10.0 mi Calm Calm - N/A   Overcast
11:56 AM 82.9 °F 85.8 °F 68.0 °F 60% 30.00 in 10.0 mi Variable 3.5 mph - N/A   Overcast
12:56 PM 84.2 °F 87.3 °F 68.0 °F 58% 29.97 in 10.0 mi Calm Calm - N/A   Overcast
1:56 PM 86.0 °F 88.2 °F 66.0 °F 51% 29.95 in 10.0 mi East 5.8 mph - N/A   Overcast
2:56 PM 87.1 °F 87.8 °F 63.0 °F 44% 29.92 in 10.0 mi ENE 5.8 mph - N/A   Overcast
3:56 PM 87.1 °F 89.2 °F 66.0 °F 49% 29.89 in 10.0 mi East 8.1 mph - N/A   Overcast
4:56 PM 84.9 °F 85.4 °F 62.1 °F 46% 29.88 in 10.0 mi East 8.1 mph - N/A   Overcast
5:56 PM 82.9 °F 85.0 °F 66.0 °F 56% 29.87 in 10.0 mi East 6.9 mph - N/A   Overcast
6:56 PM 80.1 °F 81.9 °F 64.9 °F 60% 29.88 in 10.0 mi East 6.9 mph - N/A   Overcast
7:56 PM 77.0 °F - 68.0 °F 74% 29.89 in 10.0 mi ESE 5.8 mph - N/A   Overcast
8:56 PM 75.0 °F - 69.1 °F 82% 29.90 in 10.0 mi Calm Calm - N/A   Overcast
9:56 PM 75.2 °F - 69.8 °F 83% 29.91 in 10.0 mi Calm Calm - N/A   Overcast
10:56 PM 73.0 °F - 70.0 °F 90% 29.91 in 10.0 mi Calm Calm - N/A   Overcast
11:56 PM 73.0 °F - 70.0 °F 90% 29.91 in 10.0 mi Calm Calm - N/A   Overcast